Location: Indian Springs
(36.5700°N, 115.6700°W)
Time: 06:50:21
(UTC-07:00)

Amateur Radio Satellites - All Passes

Search period start: 30 September 2014 06:20
Search period end: 01 October 2014 06:20
Location: Indian Springs, 36.5700°N, 115.6700°W

Satellite Date Start Highest point End Downlink Frequencies (MHz)
Time Altitude Azimuth
OPAL 30 Sep 06:20:36 06:22:09 11° 267° (W) 06:23:43 ?
ISS 30 Sep 06:32:43 06:35:02 18° 231° (SW) 06:37:21 145.800 FM
AO-7 30 Sep 06:39:03 06:45:59 31° 300° (WNW) 06:52:55 29.400 - 29.500 MHz
SO-67 30 Sep 06:46:55 06:47:27 10° 92° (E) 06:47:59 435.3500 MHz FM
UOSAT-12 30 Sep 06:49:33 06:54:11 57° 244° (WSW) 06:58:43 437.025 FM, 437.400 FM
Hamsat 30 Sep 07:00:48 07:04:50 46° 286° (WNW) 07:08:49 145.90 MHz
STRAND 1 30 Sep 07:16:53 07:21:45 46° 260° (W) 07:26:39 ?
RS-15 30 Sep 07:33:04 07:37:50 13° 3° (N) 07:42:38 29.354 - 29.394 USB, Beacon 29.352 USB
JAS-2 30 Sep 07:37:27 07:43:18 33° 292° (WNW) 07:49:42 435.800 - 435.900 CW/SSB, 435.910 FM
Sapphire 30 Sep 08:12:20 08:14:20 12° 102° (ESE) 08:16:20 437.095 MHz 1200 baud AX-25 AFSK
HO-68 30 Sep 08:14:45 08:18:13 14° 91° (E) 08:21:40 435.675 MHz FM
SO-67 30 Sep 08:17:26 08:20:36 34° 286° (WNW) 08:23:44 435.3500 MHz FM
PCSat 30 Sep 08:35:30 08:39:43 24° 107° (ESE) 08:43:57 145.825 MHz
Oscar 11 30 Sep 09:17:17 09:18:40 11° 91° (E) 09:20:03 145.825 FM, Beacon 2401.500 USB
UKube-1 30 Sep 09:43:46 09:47:39 31° 98° (E) 09:51:30 145.840 MHz, 145.915 MHz
RS-15 30 Sep 09:46:40 09:55:50 28° 38° (NE) 10:05:12 29.354 - 29.394 USB, Beacon 29.352 USB
Sapphire 30 Sep 09:51:38 09:57:01 76° 298° (WNW) 10:02:27 437.095 MHz 1200 baud AX-25 AFSK
HO-68 30 Sep 09:59:27 10:06:40 88° 286° (WNW) 10:13:52 435.675 MHz FM
PCSat 30 Sep 10:17:44 10:22:50 42° 302° (WNW) 10:27:58 145.825 MHz
ZACube-1 30 Sep 10:22:08 10:26:02 27° 96° (E) 10:29:49 437.345 MHz
Oscar 11 30 Sep 10:50:55 10:55:08 52° 286° (WNW) 10:59:18 145.825 FM, Beacon 2401.500 USB
FUNcube-1 30 Sep 11:12:52 11:17:26 77° 284° (WNW) 11:21:51 145.950 - 145.970 MHz USB
UKube-1 30 Sep 11:20:23 11:23:37 21° 292° (WNW) 11:26:52 145.840 MHz, 145.915 MHz
Sapphire 30 Sep 11:39:38 11:41:22 11° 316° (NW) 11:43:06 437.095 MHz 1200 baud AX-25 AFSK
HO-68 30 Sep 11:49:25 11:53:21 16° 304° (WNW) 11:57:18 435.675 MHz FM
RS-15 30 Sep 11:58:28 12:09:42 88° 242° (WSW) 12:21:25 29.354 - 29.394 USB, Beacon 29.352 USB
ZACube-1 30 Sep 11:58:37 12:02:17 24° 291° (WNW) 12:05:52 437.345 MHz
Oscar 19 30 Sep 12:46:55 12:51:28 32° 69° (ENE) 12:56:03 437.125 CW, 437.150 USB
JAS-1B 30 Sep 12:48:28 12:54:42 28° 67° (ENE) 13:00:09 435.800 - 435.900 CW/SSB
ITAMSAT 1 30 Sep 12:58:36 13:01:54 17° 64° (ENE) 13:05:13 435.822 SSB
Uribyol 2 30 Sep 12:59:23 13:02:55 19° 65° (ENE) 13:06:29 436.500 FM
Oscar 16 30 Sep 13:27:06 13:32:18 83° 76° (ENE) 13:37:31 437.025 USB, Beacon 2401.1428
AO-27 30 Sep 13:35:06 13:39:53 40° 70° (ENE) 13:44:42 436.795 MHz FM
AO-Echo 30 Sep 13:42:41 13:47:14 52° 73° (ENE) 13:51:48 ?
AO-7 30 Sep 13:56:00 13:58:37 12° 48° (NE) 14:01:13 29.400 - 29.500 MHz
Gurwin Techsat 1B 30 Sep 13:56:26 14:01:00 30° 69° (ENE) 14:05:34 435.225 FM
Saudisat 1A 30 Sep 13:58:33 14:02:54 70° 118° (ESE) 14:07:18 436.775 MHz
RS-15 30 Sep 14:13:27 14:20:33 19° 260° (W) 14:27:53 29.354 - 29.394 USB, Beacon 29.352 USB
TMSAT-1 30 Sep 14:25:05 14:30:00 41° 71° (ENE) 14:34:57 436.925 FM
Oscar 19 30 Sep 14:26:25 14:30:46 27° 264° (W) 14:35:09 437.125 CW, 437.150 USB
MaSat-1 30 Sep 14:32:50 14:34:30 13° 53° (NE) 14:36:04 437.345 MHz
ITAMSAT 1 30 Sep 14:35:54 14:40:56 53° 260° (W) 14:46:00 435.822 SSB
Uribyol 2 30 Sep 14:37:00 14:41:59 48° 260° (W) 14:47:01 436.500 FM
JAS-1B 30 Sep 14:37:28 14:45:07 49° 259° (W) 14:51:35 435.800 - 435.900 CW/SSB
Uosat F 30 Sep 15:05:26 15:08:19 16° 64° (ENE) 15:11:13 435.120 FM
AO-27 30 Sep 15:15:35 15:19:30 22° 265° (W) 15:23:26 436.795 MHz FM
Oscar 10/S400 30 Sep 15:17:41 15:36:03 45° 153° (SSE) 16:01:33 145.825 - 145.975 CW/USB, Beacon 145.810 USB
AO-Echo 30 Sep 15:24:08 15:26:19 13° 268° (W) 15:28:30 ?
Gurwin Techsat 1B 30 Sep 15:36:17 15:40:52 30° 264° (W) 15:45:29 435.225 FM
Saudisat 1A 30 Sep 15:40:48 15:42:57 13° 315° (NW) 15:45:06 436.775 MHz
AO-7 30 Sep 15:41:36 15:49:43 61° 68° (ENE) 15:57:49 29.400 - 29.500 MHz
TMSAT-1 30 Sep 16:06:03 16:10:02 22° 266° (W) 16:14:02 436.925 FM
MaSat-1 30 Sep 16:08:28 16:11:01 22° 255° (WSW) 16:13:18 437.345 MHz
KITSAT 1 30 Sep 16:35:35 16:43:21 53° 111° (ESE) 16:51:07 435.175 FM
Uosat F 30 Sep 16:41:44 16:46:36 56° 259° (W) 16:51:32 435.120 FM
OPAL 30 Sep 16:50:58 16:55:00 24° 97° (E) 16:58:58 ?
PCSat 30 Sep 17:26:18 17:29:01 14° 46° (NE) 17:31:43 145.825 MHz
AO-7 30 Sep 17:36:13 17:42:52 27° 264° (W) 17:49:33 29.400 - 29.500 MHz
JAS-2 30 Sep 17:47:31 17:52:40 88° 257° (WSW) 17:58:03 435.800 - 435.900 CW/SSB, 435.910 FM
Hamsat 30 Sep 17:51:02 17:55:23 88° 78° (ENE) 17:59:43 145.90 MHz
OPAL 30 Sep 18:29:18 18:33:55 36° 292° (WNW) 18:38:27 ?
KITSAT 1 30 Sep 18:31:47 18:38:59 35° 310° (NW) 18:46:13 435.175 FM
Sapphire 30 Sep 18:42:09 18:47:26 51° 59° (ENE) 18:52:42 437.095 MHz 1200 baud AX-25 AFSK
SO-67 30 Sep 18:47:28 18:50:45 44° 75° (ENE) 18:54:03 435.3500 MHz FM
SO-50 30 Sep 18:48:34 18:52:45 42° 115° (ESE) 18:57:03 436.795 FM
PCSat 30 Sep 19:07:43 19:13:10 89° 244° (WSW) 19:18:34 145.825 MHz
STRAND 1 30 Sep 19:29:39 19:34:49 74° 103° (ESE) 19:39:57 ?
PANSAT 30 Sep 20:11:34 20:14:26 20° 170° (S) 20:17:18 not established
HO-68 30 Sep 20:25:01 20:31:54 55° 69° (ENE) 20:38:50 435.675 MHz FM
Sapphire 30 Sep 20:26:41 20:30:25 19° 255° (WSW) 20:34:09 437.095 MHz 1200 baud AX-25 AFSK
SO-50 30 Sep 20:30:08 20:33:30 20° 312° (NW) 20:36:55 436.795 FM
UKube-1 30 Sep 20:37:32 20:40:44 21° 68° (ENE) 20:43:57 145.840 MHz, 145.915 MHz
AO-40 30 Sep 20:45:03 23:23:41 38° 199° (SSW) 04:39:41 Beacon 2401.320
UOSAT-12 30 Sep 20:57:59 21:02:34 77° 118° (ESE) 21:07:16 437.025 FM, 437.400 FM
STRAND 1 30 Sep 21:11:12 21:13:20 13° 298° (WNW) 21:15:28 ?
ZACube-1 30 Sep 21:16:53 21:19:56 18° 67° (ENE) 21:23:02 437.345 MHz
ISS 30 Sep 21:35:39 21:38:51 47° 135° (SE) 21:42:04 145.800 FM
Oscar 11 30 Sep 21:43:02 21:47:24 87° 77° (ENE) 21:51:47 145.825 FM, Beacon 2401.500 USB
PANSAT 30 Sep 21:50:57 21:54:06 24° 183° (S) 21:57:14 not established
FUNcube-1 30 Sep 22:06:19 22:10:46 62° 75° (ENE) 22:15:19 145.950 - 145.970 MHz USB
UKube-1 30 Sep 22:12:54 22:16:43 30° 262° (W) 22:20:34 145.840 MHz, 145.915 MHz
HO-68 30 Sep 22:14:13 22:19:52 25° 265° (W) 22:25:34 435.675 MHz FM
Saudisat 1A 30 Sep 22:27:52 22:31:42 28° 52° (NE) 22:35:30 436.775 MHz
UOSAT-12 30 Sep 22:40:54 22:43:17 14° 316° (NW) 22:45:41 437.025 FM, 437.400 FM
ZACube-1 30 Sep 22:51:46 22:55:59 39° 262° (W) 23:00:19 437.345 MHz
ISS 30 Sep 23:13:12 23:15:43 19° 331° (NNW) 23:18:13 145.800 FM
PANSAT 30 Sep 23:31:24 23:33:43 15° 195° (SSW) 23:36:02 not established
FUNcube-1 30 Sep 23:46:33 23:47:32 11° 270° (W) 23:48:32 145.950 - 145.970 MHz USB
Saudisat 1A 01 Oct 00:07:28 00:11:10 27° 248° (WSW) 00:14:52 436.775 MHz
RS-15 01 Oct 00:13:25 00:18:45 15° 98° (E) 00:24:02 29.354 - 29.394 USB, Beacon 29.352 USB
KITSAT 1 01 Oct 00:32:20 00:37:47 19° 40° (NE) 00:43:11 435.175 FM
Oscar 19 01 Oct 01:02:36 01:04:59 13° 91° (E) 01:07:20 437.125 CW, 437.150 USB
Oscar 16 01 Oct 01:41:44 01:46:27 35° 98° (E) 01:51:06 437.025 USB, Beacon 2401.1428
AO-27 01 Oct 01:51:36 01:55:01 17° 93° (E) 01:58:24 436.795 MHz FM
AO-Echo 01 Oct 01:52:33 01:56:26 22° 95° (E) 02:00:23 ?
Gurwin Techsat 1B 01 Oct 02:16:21 02:19:07 14° 92° (E) 02:21:52 435.225 FM
RS-15 01 Oct 02:18:11 02:29:15 79° 116° (ESE) 02:40:09 29.354 - 29.394 USB, Beacon 29.352 USB
JAS-1B 01 Oct 02:24:18 02:29:52 50° 101° (E) 02:35:58 435.800 - 435.900 CW/SSB
KITSAT 1 01 Oct 02:26:23 02:34:30 79° 61° (ENE) 02:42:34 435.175 FM
Oscar 19 01 Oct 02:39:38 02:44:42 62° 286° (WNW) 02:49:44 437.125 CW, 437.150 USB
TMSAT-1 01 Oct 02:44:09 02:47:59 20° 94° (E) 02:51:48 436.925 FM
ITAMSAT 1 01 Oct 02:51:06 02:56:19 68° 102° (ESE) 03:01:31 435.822 SSB
Uribyol 2 01 Oct 02:52:00 02:57:14 75° 103° (ESE) 03:02:27 436.500 FM
Oscar 16 01 Oct 03:21:29 03:25:34 25° 293° (WNW) 03:29:39 437.025 USB, Beacon 2401.1428
SO-50 01 Oct 03:22:37 03:26:29 23° 50° (NE) 03:30:22 436.795 FM
AO-27 01 Oct 03:29:43 03:34:45 50° 288° (WNW) 03:39:47 436.795 MHz FM
AO-Echo 01 Oct 03:30:36 03:35:15 38° 289° (WNW) 03:40:01 ?
AO-7 01 Oct 03:47:13 03:53:17 22° 94° (E) 03:59:20 29.400 - 29.500 MHz
Gurwin Techsat 1B 01 Oct 03:54:12 03:59:27 61° 286° (WNW) 04:04:40 435.225 FM
OPAL 01 Oct 04:03:08 04:07:47 34° 67° (ENE) 04:12:26 ?
ISS 01 Oct 04:06:36 04:09:22 24° 31° (NNE) 04:12:08 145.800 FM
MaSat-1 01 Oct 04:13:58 04:16:24 14° 102° (ESE) 04:18:49 437.345 MHz
JAS-1B 01 Oct 04:16:17 04:20:14 20° 295° (WNW) 04:24:22 435.800 - 435.900 CW/SSB
TMSAT-1 01 Oct 04:23:03 04:28:04 44° 289° (WNW) 04:33:05 436.925 FM
KITSAT 1 01 Oct 04:23:44 04:28:56 19° 258° (WSW) 04:34:09 435.175 FM
ITAMSAT 1 01 Oct 04:32:36 04:35:11 14° 298° (WNW) 04:37:46 435.822 SSB
RS-15 01 Oct 04:33:28 04:42:45 31° 320° (NW) 04:52:05 29.354 - 29.394 USB, Beacon 29.352 USB
Uribyol 2 01 Oct 04:33:49 04:36:02 13° 298° (WNW) 04:38:14 436.500 FM
Uosat F 01 Oct 04:51:48 04:56:45 55° 101° (E) 05:01:41 435.120 FM
JAS-2 01 Oct 04:59:05 05:03:12 16° 92° (E) 05:07:30 435.800 - 435.900 CW/SSB, 435.910 FM
SO-50 01 Oct 05:02:38 05:07:11 41° 246° (WSW) 05:11:45 436.795 FM
UOSAT-12 01 Oct 05:30:12 05:34:31 34° 53° (NE) 05:38:45 437.025 FM, 437.400 FM
AO-7 01 Oct 05:38:24 05:46:38 71° 291° (WNW) 05:54:52 29.400 - 29.500 MHz
Hamsat 01 Oct 05:40:21 05:43:13 18° 94° (E) 05:46:05 145.90 MHz
OPAL 01 Oct 05:42:17 05:46:37 27° 262° (W) 05:50:59 ?
ISS 01 Oct 05:43:04 05:46:06 33° 227° (SW) 05:49:07 145.800 FM
MaSat-1 01 Oct 05:47:38 05:52:27 59° 295° (WNW) 05:57:04 437.345 MHz
